CW0352 Weather Reports


Display with metric or nautical units.
time (UTC)temp
F
wind
direction
speed
MPH
gust
MPH
rain 1hr
in
rain 24hr
in
rain mn
in
humidity
%
barometer
mb
20260903015544 85 0 2.0 8.0 0.00 0.00 0.00 29 1013.4
20260903015040 86 0 2.0 8.0 0.00 0.00 0.00 29 1013.4
20260903014514 86 0 2.0 5.0 0.00 0.00 0.00 29 1013.3
20260903014012 87 0 2.0 5.0 0.00 0.00 0.00 28 1013.3
20260903013815 87 0 1.0 4.0 0.00 0.00 0.00 28 1013.2
20260903013737 87 0 1.0 4.0 0.00 0.00 0.00 28 1013.2
20260903012914 88 0 2.0 4.0 0.00 0.00 0.00 28 1013.2
20260903012635 88 0 2.0 4.0 0.00 0.00 0.00 27 1013.2
20260903012520 88 0 2.0 4.0 0.00 0.00 0.00 27 1013.2
20260903012103 89 0 2.0 4.0 0.00 0.00 0.00 27 1013.2
20260903011948 89 0 2.0 4.0 0.00 0.00 0.00 27 1013.2
20260903011329 90 0 2.0 5.0 0.00 0.00 0.00 26 1013.2
20260903010828 90 0 1.0 5.0 0.00 0.00 0.00 25 1013.2
20260903010326 91 0 1.0 5.0 0.00 0.00 0.00 25 1013.2
20260903005828 92 200 2.0 5.0 0.00 0.00 0.00 24 1013.2
20260903005300 92 201 1.0 7.0 0.00 0.00 0.00 24 1013.1
20260903004734 93 213 2.0 7.0 0.00 0.00 0.00 24 1013.3
20260903004208 93 196 3.0 7.0 0.00 0.00 0.00 24 1013.2
20260903003703 94 211 3.0 7.0 0.00 0.00 0.00 23 1013.2
20260903003148 94 231 3.0 8.0 0.00 0.00 0.00 23 1013.2
20260903002622 95 216 3.0 9.0 0.00 0.00 0.00 22 1013.1
20260903002117 95 223 3.0 9.0 0.00 0.00 0.00 24 1013.2
20260903001613 95 257 4.0 10.0 0.00 0.00 0.00 23 1013.2
20260903001304 96 215 5.0 10.0 0.00 0.00 0.00 23 1013.2
20260903001148 96 215 5.0 10.0 0.00 0.00 0.00 23 1013.2
20260903000744 96 254 5.0 10.0 0.00 0.00 0.00 23 1013.2
20260903000622 96 254 5.0 10.0 0.00 0.00 0.00 23 1013.2
20260903000017 96 236 5.0 10.0 0.00 0.00 0.00 23 1013.3
20260902235510 96 250 4.0 9.0 0.00 0.00 0.00 23 1013.2
20260902235001 97 194 4.0 10.0 0.00 0.00 0.00 24 1013.1
20260902234435 97 198 5.0 11.0 0.00 0.00 0.00 24 1013.2
20260902233914 97 207 5.0 12.0 0.00 0.00 0.00 24 1013.1
20260902233429 97 252 5.0 12.0 0.00 0.00 0.00 24 1013.2
20260902233137 97 200 7.0 13.0 0.00 0.00 0.00 24 1013.2
20260902233020 97 200 7.0 13.0 0.00 0.00 0.00 24 1013.2
20260902232635 97 246 7.0 13.0 0.00 0.00 0.00 23 1013.2
20260902232517 97 246 7.0 13.0 0.00 0.00 0.00 23 1013.2
20260902231855 97 246 6.0 14.0 0.00 0.00 0.00 23 1013.3
20260902231345 98 238 6.0 14.0 0.00 0.00 0.00 23 1013.3
20260902230851 98 226 6.0 13.0 0.00 0.00 0.00 23 1013.2
20260902230341 98 228 6.0 14.0 0.00 0.00 0.00 24 1013.2
20260902225839 98 202 6.0 14.0 0.00 0.00 0.00 24 1013.2
20260902225308 98 250 6.0 13.0 0.00 0.00 0.00 24 1013.2
20260902224740 98 238 7.0 15.0 0.00 0.00 0.00 24 1013.2
20260902224226 98 242 8.0 15.0 0.00 0.00 0.00 23 1013.2
20260902223725 98 217 7.0 14.0 0.00 0.00 0.00 23 1013.2
20260902223208 98 234 6.0 16.0 0.00 0.00 0.00 24 1013.2
20260902222713 99 234 6.0 16.0 0.00 0.00 0.00 23 1013.2
20260902222428 98 205 7.0 15.0 0.00 0.00 0.00 22 1013.1
20260902222314 98 205 7.0 15.0 0.00 0.00 0.00 22 1013.1
20260902221644 99 234 7.0 20.0 0.00 0.00 0.00 23 1013.2
20260902221127 99 221 7.0 20.0 0.00 0.00 0.00 23 1013.2
20260902220622 99 254 7.0 17.0 0.00 0.00 0.00 23 1013.3
20260902220109 100 257 6.0 12.0 0.00 0.00 0.00 23 1013.3
20260902215534 100 193 5.0 16.0 0.00 0.00 0.00 24 1013.3
20260902215014 100 198 5.0 17.0 0.00 0.00 0.00 25 1013.3
20260902214509 100 246 6.0 17.0 0.00 0.00 0.00 24 1013.4
20260902213952 99 182 7.0 21.0 0.00 0.00 0.00 24 1013.4
20260902213451 100 207 7.0 21.0 0.00 0.00 0.00 24 1013.6
20260902212925 100 236 6.0 20.0 0.00 0.00 0.00 24 1013.6
20260902212401 100 239 6.0 20.0 0.00 0.00 0.00 24 1013.7
20260902211924 100 221 6.0 16.0 0.00 0.00 0.00 23 1013.8
20260902211344 100 199 6.0 15.0 0.00 0.00 0.00 24 1013.8
20260902210833 100 178 6.0 15.0 0.00 0.00 0.00 23 1013.8
20260902210306 99 175 6.0 15.0 0.00 0.00 0.00 23 1013.9
20260902210029 99 186 6.0 19.0 0.00 0.00 0.00 23 1013.9
20260902205910 99 186 6.0 19.0 0.00 0.00 0.00 23 1013.9
20260902205306 99 149 7.0 19.0 0.00 0.00 0.00 23 1014.2
20260902204806 99 232 5.0 15.0 0.00 0.00 0.00 23 1014.1
20260902204240 98 223 6.0 11.0 0.00 0.00 0.00 23 1014.2
20260902203737 98 230 7.0 18.0 0.00 0.00 0.00 25 1014.3
20260902203428 98 220 7.0 18.0 0.00 0.00 0.00 25 1014.4
20260902203315 98 220 7.0 18.0 0.00 0.00 0.00 25 1014.4
20260902202703 98 233 7.0 18.0 0.00 0.00 0.00 27 1014.4
20260902202209 98 192 7.0 18.0 0.00 0.00 0.00 27 1014.5
20260902201700 98 225 6.0 14.0 0.00 0.00 0.00 27 1014.5
20260902201134 98 182 6.0 12.0 0.00 0.00 0.00 27 1014.7
20260902200615 98 188 6.0 15.0 0.00 0.00 0.00 28 1014.6
20260902200056 98 184 6.0 15.0 0.00 0.00 0.00 30 1014.6
20260902195540 98 205 5.0 14.0 0.00 0.00 0.00 29 1014.7
20260902195014 98 235 4.0 13.0 0.00 0.00 0.00 31 1014.7
20260902194715 98 182 5.0 13.0 0.00 0.00 0.00 31 1014.8
20260902194600 98 182 5.0 13.0 0.00 0.00 0.00 31 1014.8
20260902193949 98 154 4.0 11.0 0.00 0.00 0.00 31 1014.8
20260902193451 98 239 4.0 11.0 0.00 0.00 0.00 31 1014.9
20260902192921 97 225 4.0 11.0 0.00 0.00 0.00 33 1015.0
20260902192355 97 242 4.0 11.0 0.00 0.00 0.00 33 1015.2
20260902191831 97 175 4.0 11.0 0.00 0.00 0.00 34 1015.2
20260902191329 97 203 4.0 10.0 0.00 0.00 0.00 35 1015.3
20260902191108 97 188 5.0 16.0 0.00 0.00 0.00 33 1015.3
20260902190936 97 188 5.0 16.0 0.00 0.00 0.00 33 1015.3
20260902190600 98 93 3.0 16.0 0.00 0.00 0.00 33 1015.4
20260902190440 98 93 3.0 16.0 0.00 0.00 0.00 33 1015.4
20260902185934 97 213 3.0 13.0 0.00 0.00 0.00 34 1015.4
20260902185326 97 154 4.0 13.0 0.00 0.00 0.00 34 1015.3
20260902184823 96 186 3.0 10.0 0.00 0.00 0.00 35 1015.5
20260902184521 96 161 3.0 11.0 0.00 0.00 0.00 35 1015.4
20260902184401 96 161 3.0 11.0 0.00 0.00 0.00 35 1015.4
20260902183731 96 196 3.0 11.0 0.00 0.00 0.00 35 1015.5
20260902183239 95 207 3.0 10.0 0.00 0.00 0.00 36 1015.6
20260902182735 95 165 3.0 10.0 0.00 0.00 0.00 36 1015.6
20260902182445 94 188 4.0 11.0 0.00 0.00 0.00 38 1015.7
20260902182325 94 188 4.0 11.0 0.00 0.00 0.00 38 1015.7
20260902181714 93 167 5.0 11.0 0.00 0.00 0.00 37 1015.8
20260902181156 94 219 4.0 11.0 0.00 0.00 0.00 37 1015.9
20260902180903 94 261 3.0 11.0 0.00 0.00 0.00 38 1015.9
20260902180739 94 261 3.0 11.0 0.00 0.00 0.00 38 1015.9
20260902180356 93 214 4.0 9.0 0.00 0.00 0.00 38 1016.0
20260902180242 93 214 4.0 9.0 0.00 0.00 0.00 38 1016.0
20260902175633 93 149 4.0 9.0 0.00 0.00 0.00 39 1016.1
20260902175130 92 177 3.0 9.0 0.00 0.00 0.00 39 1016.1
20260902174600 92 198 3.0 10.0 0.00 0.00 0.00 42 1016.1
20260902174056 91 201 5.0 10.0 0.00 0.00 0.00 42 1016.3
20260902173819 91 145 4.0 11.0 0.00 0.00 0.00 41 1016.4
20260902173702 91 145 4.0 11.0 0.00 0.00 0.00 41 1016.4
20260902173031 91 233 4.0 11.0 0.00 0.00 0.00 40 1016.4
20260902172538 91 196 4.0 10.0 0.00 0.00 0.00 41 1016.4
20260902172026 90 227 3.0 9.0 0.00 0.00 0.00 41 1016.4
20260902171500 90 245 3.0 8.0 0.00 0.00 0.00 42 1016.3
20260902170953 90 177 2.0 7.0 0.00 0.00 0.00 43 1016.5
20260902170503 89 152 2.0 7.0 0.00 0.00 0.00 44 1016.5
20260902165923 88 177 3.0 8.0 0.00 0.00 0.00 45 1016.5
20260902165419 87 190 3.0 8.0 0.00 0.00 0.00 45 1016.7
20260902164855 87 188 4.0 7.0 0.00 0.00 0.00 47 1016.8
20260902164347 87 187 3.0 7.0 0.00 0.00 0.00 46 1016.9
20260902164104 86 197 2.0 5.0 0.00 0.00 0.00 48 1016.9
20260902163947 86 197 2.0 5.0 0.00 0.00 0.00 48 1016.9
20260902163338 85 202 3.0 7.0 0.00 0.00 0.00 48 1016.8
20260902162832 85 202 3.0 7.0 0.00 0.00 0.00 48 1016.9
20260902162307 85 170 3.0 8.0 0.00 0.00 0.00 49 1016.8
20260902161751 85 221 3.0 8.0 0.00 0.00 0.00 49 1016.8
20260902161248 85 225 3.0 8.0 0.00 0.00 0.00 50 1016.8
20260902160743 84 197 3.0 8.0 0.00 0.00 0.00 50 1016.8
20260902160232 83 209 3.0 9.0 0.00 0.00 0.00 50 1016.8
20260902155733 83 198 3.0 9.0 0.00 0.00 0.00 51 1016.8
20260902155554 82 216 3.0 8.0 0.00 0.00 0.00 53 1016.7
20260902155525 81 221 3.0 7.0 0.00 0.00 0.00 53 1016.7
20260902155521 82 216 3.0 8.0 0.00 0.00 0.00 53 1016.7
20260902154807 81 221 3.0 7.0 0.00 0.00 0.00 53 1016.7
20260902154136 80 215 3.0 7.0 0.00 0.00 0.00 54 1016.7
20260902153635 80 215 3.0 7.0 0.00 0.00 0.00 56 1016.7
20260902153117 79 207 3.0 8.0 0.00 0.00 0.00 56 1016.7
20260902152834 79 229 4.0 8.0 0.00 0.00 0.00 56 1016.7
20260902152720 79 229 4.0 8.0 0.00 0.00 0.00 56 1016.7
20260902152052 79 251 4.0 8.0 0.00 0.00 0.00 56 1016.8
20260902151531 78 229 3.0 6.0 0.00 0.00 0.00 58 1016.7
20260902151035 78 0 3.0 8.0 0.00 0.00 0.00 59 1016.7
20260902150530 77 0 3.0 8.0 0.00 0.00 0.00 59 1016.8
20260902150028 77 0 3.0 8.0 0.00 0.00 0.00 60 1016.8
20260902145517 76 0 4.0 9.0 0.00 0.00 0.00 62 1016.9
20260902145012 76 0 4.0 9.0 0.00 0.00 0.00 62 1016.9
20260902144516 75 0 4.0 10.0 0.00 0.00 0.00 63 1016.9
20260902144011 75 0 4.0 10.0 0.00 0.00 0.00 64 1016.9
20260902143459 74 0 4.0 13.0 0.00 0.00 0.00 64 1016.8
20260902142924 74 0 4.0 13.0 0.00 0.00 0.00 65 1016.9
20260902142403 74 0 4.0 11.0 0.00 0.00 0.00 65 1016.9
20260902141853 73 0 4.0 11.0 0.00 0.00 0.00 67 1016.9
20260902141351 73 0 4.0 13.0 0.00 0.00 0.00 68 1016.9
20260902140838 72 0 4.0 13.0 0.00 0.00 0.00 69 1017.0
20260902140313 71 0 4.0 9.0 0.00 0.00 0.00 71 1017.0
20260902135758 70 0 2.0 9.0 0.00 0.00 0.00 72 1017.0
20260902135239 70 0 2.0 8.0 0.00 0.00 0.00 75 1017.1
20260902134738 69 0 2.0 8.0 0.00 0.00 0.00 76 1017.0
20260902134236 68 0 2.0 5.0 0.00 0.00 0.00 77 1016.9
20260902133712 68 0 2.0 5.0 0.00 0.00 0.00 78 1016.9
20260902133146 67 0 2.0 5.0 0.00 0.00 0.00 79 1016.9
20260902132913 67 0 1.0 4.0 0.00 0.00 0.00 79 1016.9
20260902132753 67 0 1.0 4.0 0.00 0.00 0.00 79 1016.9
20260902132121 66 0 1.0 5.0 0.00 0.00 0.00 80 1016.9
20260902131625 66 0 1.0 5.0 0.00 0.00 0.00 80 1017.0
20260902131119 66 0 0.0 4.0 0.00 0.00 0.00 80 1017.0
20260902130838 65 0 1.0 4.0 0.00 0.00 0.00 80 1017.0
20260902130725 65 0 1.0 4.0 0.00 0.00 0.00 80 1017.0
20260902130109 65 0 1.0 4.0 0.00 0.00 0.00 80 1017.0
20260902125612 65 0 1.0 4.0 0.00 0.00 0.00 80 1016.9
20260902125053 65 0 1.0 4.0 0.00 0.00 0.00 80 1017.0
20260902124544 65 0 1.0 4.0 0.00 0.00 0.00 80 1016.9
20260902124019 65 0 1.0 4.0 0.00 0.00 0.00 80 1016.9
20260902123732 65 0 1.0 4.0 0.00 0.00 0.00 80 1016.9
20260902123600 65 0 1.0 4.0 0.00 0.00 0.00 80 1016.9
20260902122938 65 0 1.0 4.0 0.00 0.00 0.00 80 1016.8
20260902122412 65 0 1.0 3.0 0.00 0.00 0.00 80 1016.8
20260902122117 65 0 1.0 3.0 0.00 0.00 0.00 80 1016.6
20260902121952 65 0 1.0 3.0 0.00 0.00 0.00 80 1016.6
20260902121348 65 0 1.0 3.0 0.00 0.00 0.00 80 1016.7
20260902120856 65 0 0.0 3.0 0.00 0.00 0.00 79 1016.8
20260902120543 65 0 0.0 3.0 0.00 0.00 0.00 79 1016.8
20260902120427 65 0 0.0 3.0 0.00 0.00 0.00 79 1016.8
20260902115758 65 0 1.0 4.0 0.00 0.00 0.00 79 1016.8
20260902115237 65 0 1.0 3.0 0.00 0.00 0.00 79 1016.8
20260902114724 65 0 1.0 6.0 0.00 0.00 0.00 79 1016.8
20260902114213 65 0 1.0 6.0 0.00 0.00 0.00 78 1016.8
20260902113908 65 0 1.0 3.0 0.00 0.00 0.00 78 1016.8
20260902113750 65 0 1.0 3.0 0.00 0.00 0.00 78 1016.8
20260902113121 65 0 1.0 4.0 0.00 0.00 0.00 78 1016.8
20260902112556 65 0 1.0 4.0 0.00 0.00 0.00 78 1016.7
20260902112052 65 0 0.0 2.0 0.00 0.00 0.00 78 1016.7
20260902111550 65 0 0.0 2.0 0.00 0.00 0.00 77 1016.7
20260902111025 65 0 0.0 2.0 0.00 0.00 0.00 77 1016.7
20260902110519 65 0 0.0 3.0 0.00 0.00 0.00 77 1016.8
20260902110015 65 0 0.0 3.0 0.00 0.00 0.00 76 1016.8
20260902105731 65 0 0.0 2.0 0.00 0.00 0.00 76 1016.9
20260902105616 65 0 0.0 2.0 0.00 0.00 0.00 76 1016.9
20260902105408 66 0 0.0 3.0 0.00 0.00 0.00 76 1016.8
20260902105111 66 0 0.0 2.0 0.00 0.00 0.00 76 1016.8
20260902104724 66 0 0.0 3.0 0.00 0.00 0.00 76 1016.8
20260902103924 66 0 1.0 4.0 0.00 0.00 0.00 76 1016.8
20260902103355 66 0 1.0 4.0 0.00 0.00 0.00 75 1016.8
20260902103219 66 0 0.0 3.0 0.00 0.00 0.00 75 1016.8
20260902103146 66 0 0.0 3.0 0.00 0.00 0.00 75 1016.8
20260902102330 66 0 0.0 2.0 0.00 0.00 0.00 74 1016.9
20260902101836 66 0 0.0 2.0 0.00 0.00 0.00 74 1017.0
20260902101323 67 0 0.0 1.0 0.00 0.00 0.00 74 1016.9
20260902100800 67 0 0.0 1.0 0.00 0.00 0.00 73 1016.9
20260902100253 67 0 0.0 2.0 0.00 0.00 0.00 73 1017.0
20260902095742 67 0 1.0 4.0 0.00 0.00 0.00 73 1017.0
20260902095240 67 0 1.0 4.0 0.00 0.00 0.00 72 1017.1
20260902094931 67 0 0.0 2.0 0.00 0.00 0.00 72 1017.1
20260902094819 67 0 0.0 2.0 0.00 0.00 0.00 72 1017.1
20260902094216 68 0 0.0 2.0 0.00 0.00 0.00 72 1017.1
20260902094156 68 0 0.0 2.0 0.00 0.00 0.00 72 1017.2
20260902093758 68 0 0.0 2.0 0.00 0.00 0.00 72 1017.1
20260902093113 68 0 0.0 3.0 0.00 0.00 0.00 72 1017.2
20260902092611 68 0 0.0 3.0 0.00 0.00 0.00 72 1017.1
20260902092106 68 0 1.0 3.0 0.00 0.00 0.00 72 1017.1
20260902091602 68 0 1.0 3.0 0.00 0.00 0.00 72 1017.2
20260902091056 68 0 1.0 3.0 0.00 0.00 0.00 72 1017.1
20260902090528 68 0 1.0 3.0 0.00 0.00 0.00 72 1017.4
20260902090244 68 0 1.0 4.0 0.00 0.00 0.00 72 1017.4
20260902090110 68 0 1.0 4.0 0.00 0.00 0.00 72 1017.4
20260902085456 68 0 1.0 2.0 0.00 0.00 0.00 72 1017.2
20260902084958 68 0 0.0 2.0 0.00 0.00 0.00 73 1017.2
20260902084432 68 0 0.0 2.0 0.00 0.00 0.00 73 1017.4
20260902083902 68 0 1.0 4.0 0.00 0.00 0.00 73 1017.2
20260902083641 68 0 1.0 5.0 0.00 0.00 0.00 72 1017.4
20260902083335 68 0 1.0 5.0 0.00 0.00 0.00 72 1017.2
20260902083121 68 0 1.0 5.0 0.00 0.00 0.00 72 1017.4
20260902082816 68 0 1.0 4.0 0.00 0.00 0.00 73 1017.4
20260902082430 68 0 1.0 4.0 0.00 0.00 0.00 73 1017.4
20260902081758 68 0 1.0 5.0 0.00 0.00 0.00 72 1017.4
20260902081230 68 0 1.0 5.0 0.00 0.00 0.00 72 1017.5
20260902080704 69 0 1.0 4.0 0.00 0.00 0.00 72 1017.6
20260902080200 69 0 1.0 4.0 0.00 0.00 0.00 71 1017.5
20260902080013 69 0 1.0 3.0 0.00 0.00 0.00 70 1017.5
20260902075932 69 0 1.0 3.0 0.00 0.00 0.00 70 1017.5
20260902075114 69 0 1.0 5.0 0.00 0.00 0.00 70 1017.6
20260902074548 69 0 1.0 5.0 0.00 0.00 0.00 69 1017.7
20260902074024 69 0 1.0 5.0 0.00 0.00 0.00 68 1017.6
20260902073518 69 0 2.0 6.0 0.00 0.00 0.00 68 1017.6
20260902072959 70 0 3.0 6.0 0.00 0.00 0.00 67 1017.6
20260902072448 70 0 2.0 5.0 0.00 0.00 0.00 67 1017.5
20260902071958 70 0 1.0 4.0 0.00 0.00 0.00 67 1017.4
20260902071722 70 0 1.0 5.0 0.00 0.00 0.00 66 1017.4
20260902071557 70 0 1.0 5.0 0.00 0.00 0.00 66 1017.4
20260902070943 70 0 1.0 5.0 0.00 0.00 0.00 66 1017.2
20260902070432 70 0 1.0 4.0 0.00 0.00 0.00 65 1017.4
20260902065920 71 0 0.0 3.0 0.00 0.00 0.00 65 1017.4
20260902065707 71 0 1.0 3.0 0.00 0.00 0.00 64 1017.2
20260902065636 71 0 1.0 3.0 0.00 0.00 0.00 64 1017.2
20260902064841 71 0 1.0 5.0 0.00 0.00 0.00 64 1017.2
20260902064316 71 0 1.0 5.0 0.00 0.00 0.00 64 1017.2
20260902063750 71 240 1.0 2.0 0.00 0.00 0.00 63 1017.2
20260902063452 71 240 0.0 2.0 0.00 0.00 0.00 63 1017.1
20260902063328 71 240 0.0 2.0 0.00 0.00 0.00 63 1017.1
20260902062659 72 240 0.0 3.0 0.00 0.00 0.00 63 1017.2
20260902062145 72 240 1.0 3.0 0.00 0.00 0.00 63 1017.0
20260902061618 72 240 1.0 2.0 0.00 0.00 0.00 62 1017.0
20260902061102 72 240 0.0 2.0 0.00 0.00 0.00 62 1017.0
20260902060544 72 240 0.0 3.0 0.00 0.00 0.00 61 1017.1
20260902060030 73 240 1.0 4.0 0.00 0.00 0.00 61 1017.0
20260902055502 73 240 1.0 4.0 0.00 0.00 0.00 61 1017.0
20260902054949 73 240 2.0 5.0 0.00 0.00 0.00 61 1017.0
20260902054447 73 240 2.0 5.0 0.00 0.00 0.00 60 1017.0
20260902054323 73 240 2.0 5.0 0.00 0.00 0.00 60 1017.1
20260902054236 73 240 2.0 5.0 0.00 0.00 0.00 60 1017.1
20260902053504 74 240 2.0 5.0 0.00 0.00 0.00 59 1017.1
20260902052941 74 238 2.0 4.0 0.00 0.00 0.00 58 1017.2
20260902052444 74 239 2.0 4.0 0.00 0.00 0.00 58 1017.4
20260902051937 75 239 2.0 4.0 0.00 0.00 0.00 57 1017.5
20260902051441 75 239 2.0 4.0 0.00 0.00 0.00 57 1017.4
20260902050917 75 239 2.0 4.0 0.00 0.00 0.00 56 1017.5
20260902050639 76 239 1.0 4.0 0.00 0.00 0.00 55 1017.4
20260902050518 76 239 1.0 4.0 0.00 0.00 0.00 55 1017.4
20260902050142 76 239 1.0 2.0 0.00 0.00 0.00 55 1017.2
20260902050022 76 239 1.0 2.0 0.00 0.00 0.00 55 1017.2
20260902045412 76 239 1.0 8.0 0.00 0.00 0.00 54 1017.4
20260902044848 76 239 2.0 8.0 0.00 0.00 0.00 54 1017.2
20260902044344 76 244 3.0 8.0 0.00 0.00 0.00 54 1017.1
20260902044331 76 240 3.0 8.0 0.00 0.00 0.00 54 1017.1
20260902044254 76 244 3.0 8.0 0.00 0.00 0.00 54 1017.1
20260902043323 76 256 2.0 6.0 0.00 0.00 0.00 55 1017.1
20260902042807 76 256 2.0 3.0 0.00 0.00 0.00 56 1017.1
20260902042245 76 255 1.0 3.0 0.00 0.00 0.00 56 1017.1
20260902041748 77 255 0.0 2.0 0.00 0.00 0.00 57 1017.1
20260902041214 77 256 0.0 1.0 0.00 0.00 0.00 58 1017.0
20260902040713 78 255 0.0 0.0 0.00 0.00 0.00 57 1017.1
20260902040212 78 256 0.0 0.0 0.00 0.00 0.00 58 1017.1
20260902035645 78 256 0.0 1.0 0.00 0.00 0.00 57 1017.0
20260902035141 78 255 0.0 2.0 0.00 0.00 0.00 57 1016.9
20260902034639 78 256 1.0 3.0 0.00 0.00 0.00 56 1016.9
20260902034137 79 256 2.0 5.0 0.00 0.00 0.00 56 1017.0
20260902033610 79 255 3.0 4.0 0.00 0.00 0.00 54 1017.1
20260902033045 79 254 3.0 9.0 0.00 0.00 0.00 54 1017.4
20260902032538 79 254 4.0 8.0 0.00 0.00 0.00 54 1017.4
20260902032033 79 247 5.0 12.0 0.00 0.00 0.00 54 1017.5
20260902031532 79 246 4.0 10.0 0.00 0.00 0.00 55 1017.5
20260902031233 79 276 4.0 8.0 0.00 0.00 0.00 56 1017.6
20260902031107 79 276 4.0 8.0 0.00 0.00 0.00 56 1017.6
20260902030504 80 265 4.0 7.0 0.00 0.00 0.00 55 1017.7
20260902030236 80 256 3.0 7.0 0.00 0.00 0.00 55 1017.6
20260902030106 80 256 3.0 7.0 0.00 0.00 0.00 55 1017.6
20260902025439 80 254 4.0 8.0 0.00 0.00 0.00 54 1017.5
20260902024934 80 251 4.0 9.0 0.00 0.00 0.00 53 1017.5
20260902024430 81 242 4.0 9.0 0.00 0.00 0.00 53 1017.4
20260902023908 81 234 3.0 8.0 0.00 0.00 0.00 52 1017.2
20260902023357 82 0 4.0 9.0 0.00 0.00 0.00 51 1017.2
20260902022834 82 0 6.0 14.0 0.00 0.00 0.00 50 1017.2
20260902022337 83 0 6.0 14.0 0.00 0.00 0.00 49 1017.1
20260902021832 83 0 8.0 18.0 0.00 0.00 0.00 47 1017.0
20260902021437 85 0 9.0 17.0 0.00 0.00 0.00 43 1016.9
20260902021338 84 0 10.0 18.0 0.00 0.00 0.00 46 1016.9
20260902021124 85 0 9.0 17.0 0.00 0.00 0.00 43 1016.9
20260902020256 85 0 6.0 13.0 0.00 0.00 0.00 41 1016.8